Погода в Му-и-Ране

Норвегия     66°19′32″N   14°10′28″E
темп.,
°C
ветер,
м/с
пор.,
м/с
влажн.,
%
обл.,
%
осадки,
мм/ч
давл.,
гПа
погр.,
м
4 июля, пн
пн423:00+13з11765 0.3 101019
02:00+9юз229460 0.6 101233
05:00+10зюз018837 0.4 1012187
08:00+12ссв118060 0.4 1011463
11:00+14ссв2273100 0.1 1010654
14:00+17ссв125788 1.4 1007656
17:00+18в226194 0.3 100530
20:00+15юв3567100 0.6 1003127
5 июля, вт
вт523:00+12вюв3585100 1.8 1003266
02:00+11вюв3487100 2.1 100257
05:00+12в3384100 0.5 1001136
08:00+14юв356881 1.4 1000953
11:00+16ю345898 1.1 9991480
14:00+15з5462100 2.6 9991058
17:00+9зюз91391100 1.9 1003782
20:00+9зюз3786100 2.6 10051050
6 июля, ср
ср623:00+9зюз3884100 1.7 1005929
02:00+8з3791100 2.4 1005884
05:00+7з3891100 1.4 10051100
08:00+7зюз2783100 1.9 10051181
11:00+7ююз2582100 0.6 1005933
14:00+7зюз2288100 1.5 1006356
17:00+8юз1476100 0.6 10051016
20:00+7юз1184100 0.9 1005249
7 июля, чт
чт723:00+7юз1188100 0.7 1005198
02:00+6ююз1188100 0.9 1005182
05:00+6ююз1288100 0.1 1005609
08:00+7ю1187100 0.1 1006348
11:00+7юз2386100 0.2 1008442
14:00+8зюз4885100 1.2 10091149
17:00+7зюз3993100 1.6 10101055
20:00+7зюз4992100 3.2 1011912
8 июля, пт
пт823:00+7зюз4892100 1.5 1012832
02:00+7зюз4993100 2.6 1013820
05:00+7зюз4988100 0.7 1014822
08:00+8зюз4678100 0.8 1015817
11:00+7зюз3485100 0.2 1015755
14:00+8з228097 0.4 1015518
17:00+8з2282100 0.3 1015442
20:00+8з1186100 0.5 1014178